CYKZCYXU

Guest
Details From CYKZ - Buttonville Muni
To CYXU - London Intl
Flight Number -
Tags Decoded
Created
Modified
Stats Distance 92 nm / 171 km
Max Altitude 0 ft / 0 m
Waypoints 2
Social Downloads 2
Likes 0
Share VATSIM

Download

Looking for another format? Having issues loading an existing format? Contact us
Advertisement - Login to hide

Notes

Decoded

Route

CYKZ CYXU

ID Type Via Altitude Latitude Longitude Leg Dist Tot Dist Heading (true) Name
O CYKZ APT - 0 ft / 0 m 43.85750˚ -79.37083˚ - 0 nm - BUTTONVILLE MUNI
O CYXU APT - 0 ft / 0 m 43.03806˚ -81.16389˚ 92 nm 92 nm 238° / 237° -

Altitude Profile

Advertisement - Login to hide

CYKZ

Details ICAO CYKZ (YKZ)
Name BUTTONVILLE MUNI
Region Canada
Timezone America/Toronto (UTC-4.0)
Stats Elevation 650 ft / 198 m (AMSL)
Location 43.860485° -79.368821°
Runways 2
Magnetic Variation 10.525° W

METAR

CYKZ 250000Z 28008KT 15SM FEW070 BKN270 26/08 A3005 RMK CU1CI7 CU TR SLP175 DENSITY ALT 2000FT

Decode

TAF

TAF CYKZ 242339Z 2500/2512 28010G20KT P6SM FEW080 SCT280 BECMG 2500/2502 26010KT RMK NXT FCST BY 250600Z

Decode

Departure Runways

ID Width Length Bearing (true) Bearing (mag) Surface Threshold Offset Overrun Length
03 80 ft / 24 m 2,707 ft / 825 m 20.53° 31.05° Asphalt 0 ft / 0 m 0 ft / 0 m
15 100 ft / 30 m 4,086 ft / 1,245 m 142.54° 153.06° Asphalt 0 ft / 0 m 0 ft / 0 m
21 80 ft / 24 m 2,707 ft / 825 m 200.53° 211.05° Asphalt 0 ft / 0 m 0 ft / 0 m
33 100 ft / 30 m 4,086 ft / 1,245 m 322.55° 333.07° Asphalt 0 ft / 0 m 0 ft / 0 m

CYXU

Details ICAO CYXU (YXU)
Name LONDON
Region Canada
Timezone America/Toronto (UTC-4.0)
Stats Elevation 912 ft / 278 m (AMSL)
Location 43.036346° -81.150661°
Runways 2
Magnetic Variation 9.093° W

METAR

CYXU 250000Z 20008KT 15SM BKN280 23/10 A3009 RMK CI6 SLP191 DENSITY ALT 1900FT

Decode

TAF

TAF CYXU 242339Z 2500/2524 20012KT P6SM SCT290 BECMG 2500/2502 22005KT BECMG 2513/2515 23012KT RMK NXT FCST BY 250600Z

Decode

Destination Runways

ID Width Length Bearing (true) Bearing (mag) Surface Threshold Offset Overrun Length
09 200 ft / 61 m 6,287 ft / 1,916 m 78.99° 88.08° Asphalt 0 ft / 0 m 0 ft / 0 m
15 200 ft / 61 m 8,796 ft / 2,681 m 138.79° 147.88° Asphalt 0 ft / 0 m 0 ft / 0 m
27 200 ft / 61 m 6,287 ft / 1,916 m 259.01° 268.10° Asphalt 0 ft / 0 m 0 ft / 0 m
33 200 ft / 61 m 8,796 ft / 2,681 m 318.81° 327.90° Asphalt 0 ft / 0 m 148 ft / 45 m

Approach Navaids

Runway Type Ident Frequency Range Bearing (true) Bearing (mag) Slope Elevation
15 Localiser IXU 109.50 MHz 18 nm / 33 km 138.88° 147.97° - 906 ft / 276 m (AMSL)
15 Glidescope IXU 109.50 MHz 10 nm / 19 km 138.80° 147.89° 3.00° 906 ft / 276 m (AMSL)

Popular Alternatives